#timestamp,LO_Frequency,Hit,StdDev 
1678878015.3,286046998.9,P
1678878035.1,286046998.1,P
1678878055.8,286047000.7,N
1678878075.7,286047000.4,N
1678878095.5,286046999.8,N
1678878115.4,286047000.4,N
1678878135.2,286047000.2,N
1678878155.0,286046999.6,N
1678878155.9,286046999.6,N
1678878175.8,286046999.3,N
1678878195.6,286047001.2,N
1678878215.4,286046998.7,N
1678878235.3,286046998.1,N
1678878255.1,286047001.0,N
1678878275.9,286047001.2,N
1678878295.7,286047000.3,N
1678878315.5,286047000.2,N
1678878335.4,286047000.9,N
1678878355.2,286046999.8,N
1678878375.0,286047000.9,N
1678878375.9,286047000.9,N
1678878395.8,286047000.4,N
1678878415.6,286046999.7,N
1678878435.5,286047001.8,N
1678878455.3,286046999.7,N
1678878475.1,286046999.9,N
1678878495.9,286047000.0,N
1678878515.7,286047000.3,N
1678878535.5,286047000.6,N
1678878555.4,286047000.6,N
1678878575.2,286047000.3,N
1678878595.1,286047000.2,N
1678878596.0,286047000.2,N
1678878615.8,286047002.8,Y
1678878635.6,286047001.6,P
1678878655.5,286046999.8,N
1678878675.3,286047001.5,N
1678878695.1,286046999.7,N
1678878715.9,286047002.2,N
1678878735.7,286047002.6,N
1678878755.6,286047002.5,N
1678878775.4,286047001.9,N
1678878795.2,286047002.3,N
1678878815.1,286047002.2,N
1678878816.0,286047002.2,N
1678878835.8,286047001.9,N
1678878855.7,286047002.7,N
1678878875.5,286047002.7,N
1678878895.3,286047002.5,N
1678878915.2,286047001.1,N
1678878935.0,286047001.0,N
1678878935.9,286047001.0,N
1678878955.7,286047001.2,N
1678878975.6,286046998.1,N
1678878995.4,286046998.9,N
1678879015.3,286047000.7,N
1678879035.1,286046998.6,N
1678879036.0,286046998.6,N
1678879055.8,286046996.6,N
1678879075.7,286046998.1,N
1678879095.5,286046999.9,N
1678879115.3,286047001.5,N
1678879135.2,286047004.4,N
1678879155.0,286047001.4,N
1678879155.9,286047001.4,N
1678879175.8,286047001.4,N
1678879195.6,286047002.4,N
1678879215.4,286047002.6,N
1678879235.3,286047002.1,N
1678879255.1,286047000.1,N
1678879275.8,286046999.7,N
1678879295.7,286047002.5,N
1678879315.5,286047002.0,N
1678879335.4,286047002.0,N
1678879355.2,286047002.6,N
1678879375.0,286046998.1,N
1678879375.9,286046998.1,N
1678879395.8,286046999.1,N
1678879415.6,286046998.5,N
1678879435.4,286047001.0,N
1678879455.3,286046998.6,N
1678879475.1,286046998.9,N
1678879495.9,286046997.9,N
1678879515.7,286046995.0,N
1678879535.5,286046997.6,N
1678879555.4,286046996.8,N
1678879575.2,286046996.6,N
1678879595.0,286046997.7,N
1678879595.9,286046997.7,N
1678879615.8,286046994.9,N
1678879635.6,286046995.4,N
1678879655.5,286046998.9,N
1678879675.3,286046998.8,N
1678879695.1,286046997.5,N
1678879715.9,286046995.8,N
1678879735.7,286046997.3,N
1678879755.6,286046998.6,N
1678879775.4,286046998.6,N
1678879795.2,286047001.0,N
1678879815.1,286046998.3,N
1678879816.0,286046998.3,N
1678879835.8,286047000.4,N
1678879855.7,286047002.5,N
1678879875.5,286047001.8,N
1678879895.3,286047004.0,N
1678879915.2,286047001.4,N
1678879935.9,286047001.5,N
1678879955.7,286047003.5,N
1678879975.6,286047003.5,N
1678879995.4,286047002.9,N
1678880015.3,286047005.6,N
1678880035.1,286047005.5,N
1678880036.0,286047005.5,N
1678880055.8,286047005.8,N
1678880075.7,286047000.1,N
1678880095.5,286047000.7,N
1678880115.3,286047000.4,N
1678880135.2,286047002.2,N
1678880155.0,286047000.8,N
1678880155.9,286047000.8,N
1678880175.8,286046999.1,N
1678880195.6,286046999.6,N
1678880215.4,286046999.5,N
1678880235.3,286046995.4,N
1678880255.1,286046994.9,N
1678880275.8,286046997.3,N
1678880295.7,286046998.9,N
1678880315.5,286047000.6,N
1678880335.4,286047002.6,N
1678880355.2,286047001.7,N
1678880375.0,286047004.1,N
1678880375.9,286047004.1,N
1678880395.8,286047001.5,N
1678880415.6,286047001.6,N
1678880435.5,286047002.6,N
1678880455.3,286047002.4,N
1678880475.1,286047001.7,N
1678880495.9,286047001.4,N
1678880515.7,286047003.9,N
1678880535.5,286047001.4,N
1678880555.4,286047002.3,N
1678880575.2,286047002.0,N
1678880595.1,286047004.1,N
1678880596.0,286047004.1,N
1678880615.8,286047003.5,N
1678880635.6,286047002.0,N
1678880655.5,286047001.0,N
1678880675.3,286047000.5,N
1678880695.1,286046998.1,N
1678880715.9,286047000.8,N
1678880735.7,286047001.0,N
1678880755.6,286047000.7,N
1678880775.4,286047001.0,N
1678880795.2,286047002.8,N
1678880815.1,286047002.4,N
1678880816.0,286047002.4,N
1678880835.8,286047001.6,N
1678880855.6,286047001.5,N
1678880875.5,286047000.0,N
1678880895.3,286046999.8,N
1678880915.2,286046999.9,N
1678880935.9,286047000.8,N
1678880955.7,286047000.6,N
1678880975.6,286047000.0,N
1678880995.4,286047000.0,N
1678881015.2,286046999.7,N
1678881035.1,286047002.3,N
1678881036.0,286047002.3,N
1678881055.8,286047002.5,N
1678881075.7,286047001.5,N
1678881095.5,286047002.2,N
1678881115.3,286047001.8,N
1678881135.2,286047001.6,N
1678881155.0,286047003.8,Y
1678881155.9,286047003.8,P
1678881175.8,286047011.9,P
1678881195.6,286047002.2,N
1678881215.4,286047002.6,N
1678881235.3,286047002.1,N
1678881255.1,286047002.0,N
1678881275.9,286047001.8,N
1678881295.7,286047001.4,N
1678881315.5,286047004.1,N
1678881335.4,286047001.7,N
1678881355.2,286047002.2,N
1678881375.0,286047002.5,N
1678881375.9,286047002.5,N
1678881395.8,286047001.8,N
1678881415.6,286047002.8,N
1678881435.5,286047000.2,N
1678881455.3,286047001.9,N
1678881475.1,286047002.2,N
1678881495.9,286047002.4,N
1678881515.0,286047000.1,N
1678881515.9,286047000.1,N
1678881535.8,286047002.0,N
1678881555.6,286047002.0,N
1678881575.5,286047002.6,N
1678881595.3,286047003.3,N
